User: anonymous   Login
Location: Caltech
(34.1382°N, 118.1253°W)
Time: 22:59:39
(UTC-08:00)
Language:

Cosmos 2360 Rocket - Orbit

View from above orbital plane
View from above orbital plane
View from above satellite
View from above satellite

Ground track
Ground track

The orbit data is extracted from the following two-line orbital elements,

1 25407U 98045B   17347.18894979 -.00000246  00000-0 -10074-3 0  9990
2 25407  71.0124  25.2652 0010245 288.5363  71.4646 14.15770854  1522
Epoch (UTC): 13 December 2017 04:32:05
Eccentricity: 0.0010245
inclination: 71.0124°
perigee height: 832 km
apogee height: 847 km
right ascension of ascending node: 25.2652°
argument of perigee: 288.5363°
revolutions per day: 14.15770854
mean anomaly at epoch: 71.4646°
orbit number at epoch: 152

The dashed part of the orbit path shows where the satellite is in the earth's shadow,  

DLR